User: anonymous   Login
Location: Moscow
(55.7500°N, 37.5830°E)
Time: 23:51:34
(UTC+03:00)
Language:

RS-44 - Orbit

View from above orbital plane
View from above orbital plane
View from above satellite
View from above satellite

Ground track
Ground track

The orbit data is extracted from the following two-line orbital elements,

1 44909U 19096E   22019.56629258  .00000007  00000-0 -86093-5 0  9997
2 44909  82.5240 329.2092 0216633 308.0732  50.0999 12.79712041 96461
Epoch (UTC): 19 January 2022 13:35:27
Eccentricity: 0.0216633
inclination: 82.5240°
perigee height: 1175 km
apogee height: 1510 km
right ascension of ascending node: 329.2092°
argument of perigee: 308.0732°
revolutions per day: 12.79712041
mean anomaly at epoch: 50.0999°
orbit number at epoch: 9646

The dashed part of the orbit path shows where the satellite is in the earth's shadow,  

DLR